Regional Weather Roundup
Issued by NWS

Home | Current Version | Previous Version | Graphics & Text | Print | Product List | Glossary On
Versions: 1 2 3 4 5 6 7 8 9 10 11 12 13 14 15 16 17 18 19 20 21 22 23 24 25 26 27
000
ASUS45 KCYS 191410
RWRWY

WYOMING REGIONAL WEATHER ROUNDUP
NATIONAL WEATHER SERVICE CHEYENNE WY
800 AM MDT SAT APR 19 2014

NOTE:  "FAIR" INDICATES FEW OR NO CLOUDS BELOW 12,000 FEET
WITH NO SIGNIFICANT WEATHER AND/OR OBSTRUCTIONS TO VISIBILITY.

WYZ001-191500-
YELLOWSTONE NATIONAL PARK

CITY           SKY/WX    TMP DP  RH WIND       PRES   REMARKS
LK YELLOWSTONE   N/A     24  18  77 CALM      30.07R
W YELLOWSTONE  NOT AVBL

$$
WYZ002>013-054>058-071-098>099-191500-
NORTHERN WYOMING

CITY           SKY/WX    TMP DP  RH WIND       PRES   REMARKS
JACKSON        SUNNY     32  25  74 N5        30.06R WCI  27
CODY           SUNNY     37  27  65 S5        30.00R WCI  34
GREYBULL       SUNNY     38  30  73 CALM      30.00R
WORLAND        SUNNY     36  31  82 SW6       29.99R WCI  31
SHERIDAN         N/A     41  28  60 CALM        N/A
BUFFALO        SUNNY     41  29  62 W5        30.04R
GILLETTE       SUNNY     42  30  62 SW12      30.03R
HULETT         FAIR      43  19  39 S6        30.04
NEWCASTLE      FAIR      37  23  56 CALM      30.04

$$
WYZ014>020-022>026-101>103-191500-
CENTRAL WYOMING

CITY           SKY/WX    TMP DP  RH WIND       PRES   REMARKS
BIG PINEY      MOSUNNY   31  17  56 VRB3      30.09R
PINEDALE       SUNNY     28  19  69 NW5       30.10R WCI  23
DUBOIS         FAIR      32  12  43 NW10      30.02R WCI  24
LANDER         SUNNY     39  22  50 N3        29.98R
RIVERTON       SUNNY     40  18  41 N6        30.01R
CASPER         SUNNY     36  31  82 N3        30.04R
DOUGLAS        MOSUNNY   38  33  82 E5        30.06R HAZE    WCI  34

$$
WYZ021-027>030-104>119-191500-
SOUTHERN WYOMING

CITY           SKY/WX    TMP DP  RH WIND       PRES   REMARKS
EVANSTON       CLOUDY    39  31  72 N3        30.09R
FORT BRIDGER   FAIR      44  24  45 CALM      30.11R
ROCK SPRINGS   PTSUNNY   44  25  47 VRB3      30.08R
DIXON          CLOUDY    42  34  75 S3        30.11S
RAWLINS        MOSUNNY   44  29  55 SW8       30.08R
SARATOGA       FAIR      41  32  70 SE3       30.10R
LARAMIE        CLOUDY    43  30  60 NW21      30.04F
CHEYENNE       CLOUDY    42  36  79 NE8       30.05R
TORRINGTON     CLOUDY    45  28  51 N6        30.05R
PINE BLUFFS    FAIR      43  36  75 N9        30.05R

$$



USA.gov is the U.S. government's official web portal to all federal, state and local government web resources and services.